Location: ???? ??????
(31.3040°N, 31.5903°E)
Time: 05:25:34
(UTC+00:00)

Daily predictions for brighter satellites

Satellite Brightness Start Highest point End
(mag) Time Altitude Azimuth Time Altitude Azimuth Time Altitude Azimuth
IRS-1C 4.4 00:02:18 10° NNE 00:07:32 56° E 00:08:00 54° ESE
IRS-1D 3.5 00:03:36 10° N 00:08:41 81° NNW 00:08:41 81° NNW
Cosmos-2242 3.8 00:04:44 10° N 00:08:00 48° NNE 00:08:00 48° NNE
Cosmos 2219 3.1 00:06:29 10° NNW 00:11:37 69° WNW 00:11:37 69° WNW
Alouette 2 Rocket 4.2 00:07:27 10° N 00:11:33 55° N 00:11:33 55° N
SL-16 R/B 2.6 00:13:21 55° W 00:13:21 55° W 00:19:00 10° NNW
Cosmos 2184 Rocket 4.2 00:16:29 46° SSE 00:18:16 66° E 00:24:22 10° NNE
GP-B 3.9 00:18:43 10° N 00:21:53 41° NW 00:21:53 41° NW
Cosmos 2297 Rocket 2.0 00:18:54 10° NNW 00:24:32 74° WSW 00:24:53 72° SW
Lacrosse 4 Rocket 3.9 00:24:30 10° N 00:27:50 22° ENE 00:31:06 10° ESE
Cosmos 2278 3.5 00:27:57 67° WSW 00:28:34 74° WNW 00:34:13 10° NNE
Cosmos 2082 4.2 00:24:26 10° N 00:29:59 56° ENE 00:35:29 10° SE
Cosmos 2322 Rocket 4.3 00:30:20 10° SE 00:34:09 19° E 00:37:59 10° ENE
ARIANE 5 R/B 2.4 00:30:22 10° NNE 00:35:25 78° ESE 00:36:23 57° S
H-2A R/B 4.1 00:32:36 10° SE 00:36:09 26° ENE 00:39:46 10° NNE
Cosmos 2181 Rocket 4.0 00:31:46 10° NNW 00:38:06 63° W 00:39:47 47° SSW
Cosmos 1455 4.4 00:35:02 10° NNW 00:35:59 16° NW 00:35:59 16° NW
ADEOS II 2.2 00:34:44 10° N 00:39:51 55° WNW 00:40:26 52° W
STARLINK-26 4.0 00:41:08 49° ENE 00:41:08 49° ENE 00:43:46 10° NE
Meteor 1-11 4.2 00:40:23 54° WSW 00:41:18 62° W 00:46:51 10° N
Cosmos 1898 Rocket 3.4 00:36:15 10° NNW 00:41:30 63° WSW 00:42:02 59° SW
Meteor 2-17 Rocket 4.5 00:40:56 35° S 00:43:41 79° E 00:49:49 10° N
CRYOSAT 2 4.5 00:40:21 10° N 00:45:07 54° W 00:45:24 53° W
Spot 4 Rocket 4.2 00:40:16 10° NNE 00:45:23 69° ESE 00:47:17 38° S
IRS-P3 4.3 00:40:41 10° N 00:45:50 53° WNW 00:46:42 47° WSW
STARLINK-1309 4.5 00:47:01 30° E 00:47:01 30° E 00:49:08 10° ENE
STARLINK-55 3.8 00:47:54 49° NE 00:47:54 49° NE 00:50:20 10° NE
STARLINK-1282 4.4 00:47:52 31° E 00:47:52 31° E 00:50:02 10° ENE
CZ-2D R/B 3.9 00:44:10 10° NNW 00:47:15 16° WNW 00:47:17 16° WNW
STARLINK-1313 4.2 00:48:57 36° E 00:48:57 36° E 00:51:13 10° NE
Cosmos 1937 Rocket 3.4 00:43:24 10° NNW 00:48:40 78° WSW 00:50:53 36° S
STARLINK-1279 4.1 00:49:51 38° E 00:49:51 38° E 00:52:09 10° NE
STARLINK-1298 4.2 00:50:29 34° E 00:50:29 34° E 00:52:47 10° ENE
Resurs 1-4 Rocket 4.0 00:47:26 10° NNW 00:50:17 15° WNW 00:50:27 15° WNW
Cosmos 2154 Rocket 4.1 00:47:05 28° S 00:50:34 78° E 00:56:50 10° N
STARLINK-1293 4.2 00:51:22 35° E 00:51:22 35° E 00:53:42 10° ENE
OAO 1 4.4 00:48:30 28° WNW 00:51:30 84° SSW 00:57:01 10° ESE
SJ 16-02 2.8 00:47:50 10° NW 00:50:03 24° WNW 00:50:03 24° WNW
STARLINK-1317 3.7 00:51:59 49° ESE 00:51:59 49° ESE 00:55:09 10° NE
STARLINK-1255 4.0 00:53:03 38° E 00:53:03 38° E 00:55:29 10° ENE
Cosmos 1697 Rocket 3.8 00:51:50 26° W 00:52:46 27° WNW 00:57:34 10° N
STARLINK-28 3.4 00:57:45 55° N 00:57:45 55° N 01:00:32 10° NE
Cosmos 2227 Rocket 2.6 00:55:08 10° NW 01:00:22 40° WSW 01:00:57 38° WSW
IRIDIUM 104 4.4 00:57:29 25° S 01:00:31 76° E 01:05:44 10° N
IDEFIX/ARIANE 42P 2.8 00:56:40 10° NNE 01:01:55 69° ESE 01:05:07 24° S
SL-16 R/B 3.1 00:58:18 18° SSE 01:02:06 44° ESE 01:07:27 10° NE
STARLINK-1291 3.2 01:02:44 62° SE 01:02:47 63° SE 01:06:04 10° NE
STARLINK-41 2.9 01:03:22 73° N 01:03:22 73° N 01:06:18 10° NE
CSL-04 DEB 4.4 01:01:47 38° S 01:03:23 79° WSW 01:07:41 10° NNW
STARLINK-1264 3.1 01:04:26 65° SE 01:04:31 66° SE 01:07:48 10° NE
STARLINK-1201 4.3 01:00:40 10° NW 01:04:44 55° NE 01:08:47 10° ESE
STARLINK-1267 3.0 01:06:06 68° SSE 01:06:15 69° SE 01:09:33 10° NE
SL-08 R/B 3.3 01:05:21 36° SSW 01:07:04 60° WSW 01:11:41 10° NNW
STARLINK-1272 2.9 01:07:43 69° S 01:07:56 73° SE 01:11:14 10° NE
Cosmos 1842 Rocket 3.7 01:03:35 10° N 01:08:04 75° E 01:11:31 17° SSE
Cosmos 1869 4.2 01:05:15 10° N 01:08:59 46° E 01:12:41 10° SSE
STARLINK-1207 2.9 01:09:22 69° S 01:09:39 77° SE 01:12:58 10° NE
IRIDIUM 114 4.2 01:06:37 26° S 01:09:40 86° W 01:14:54 10° N
STARLINK-1206 4.1 01:05:36 10° NW 01:09:42 62° NE 01:13:47 10° SE
Cosmos 2285 Rocket 4.0 01:04:47 10° NNW 01:11:00 58° WSW 01:16:27 13° S
STARLINK-1266 2.9 01:11:04 68° SSW 01:11:25 82° SE 01:14:45 10° NE
Cosmos 1400 Rocket 3.0 01:07:35 10° NNW 01:11:36 50° W 01:12:21 44° SW
CZ-4C R/B 3.9 01:10:23 13° WNW 01:12:27 16° NW 01:15:46 10° N
STARLINK-1284 2.9 01:12:47 66° SW 01:13:12 87° SE 01:16:32 10° NE
STARLINK-80 3.3 01:12:44 51° WSW 01:13:36 79° NW 01:17:23 10° NE
Skynet4D Del rocket 3.8 01:12:00 33° SW 01:14:13 52° S 01:19:28 10° E
STARLINK-1205 3.8 01:10:33 10° NW 01:14:41 70° NE 01:18:48 10° SE
STARLINK-33 3.5 01:14:31 42° WNW 01:14:49 44° NW 01:17:54 10° NNE
STARLINK-1258 2.9 01:14:26 63° SW 01:14:55 89° NW 01:18:16 10° NE
COBE Rocket 3.8 01:12:28 22° S 01:15:40 69° W 01:20:40 10° NNW
STARLINK-1292 2.9 01:16:09 60° SW 01:16:40 85° NW 01:20:00 10° NE
Landsat 5 4.1 01:13:15 10° SSE 01:17:38 62° ENE 01:22:06 10° N
USA 234 3.2 01:11:30 10° NE 01:18:03 90° NNW 01:22:16 24° SW
Cosmos 1408 3.9 01:15:16 12° SSE 01:18:20 38° E 01:21:49 10° NNE
STARLINK-1274 2.9 01:17:55 55° WSW 01:18:32 80° NW 01:21:53 10° NE
IRIDIUM 103 4.3 01:15:46 25° SSW 01:18:49 69° W 01:24:01 10° N
STARLINK-1218 3.7 01:15:30 10° NW 01:19:39 79° NE 01:23:46 10° SE
Cosmos 1076 Rocket 3.5 01:17:17 23° S 01:19:54 85° E 01:24:17 10° N
STARLINK-1289 2.9 01:19:33 52° WSW 01:20:13 76° NW 01:23:32 10° NE
Cosmos 836 Rocket 4.5 01:18:05 24° SSW 01:21:17 89° WNW 01:26:36 10° NNE
STARLINK-1303 3.0 01:21:22 49° WSW 01:22:07 72° NW 01:25:27 10° NE
STARLINK-1283 3.6 01:21:02 38° WSW 01:22:11 58° NW 01:25:54 10° NE
STARLINK-66 4.0 01:22:48 30° WNW 01:23:27 33° NW 01:26:24 10° NNE
STARLINK-1312 3.1 01:23:08 45° WSW 01:23:58 68° NW 01:27:18 10° NE
STARLINK-1254 3.5 01:20:28 10° NW 01:24:38 89° ENE 01:28:45 10° SE
Cosmos 1241 Rocket 4.4 01:21:21 22° SSW 01:25:29 88° ESE 01:31:42 10° NNE
CZ-2C R/B 2.8 01:23:35 10° N 01:27:14 57° WNW 01:28:48 31° SW
CZ-2D R/B 4.3 01:25:39 10° N 01:29:26 34° WNW 01:30:56 26° WSW
SL-24 DEB 4.1 01:24:56 10° N 01:29:32 75° W 01:33:04 17° SSW
STARLINK-1231 3.5 01:25:27 10° NW 01:29:36 82° SW 01:33:43 10° SE
NOSS 2-1 (C) 2.9 01:29:42 32° SW 01:31:13 78° WNW 01:34:35 10° NNE
Nadezhda 3 Rocket 4.0 01:26:21 10° N 01:32:36 72° W 01:38:53 10° S
Cosmos 372 Rocket 3.9 01:27:42 10° NNW 01:32:48 70° WSW 01:37:55 10° S
Cosmos 1315 Rocket 2.7 01:30:14 10° N 01:34:09 87° W 01:38:04 10° S
STARLINK-1232 3.5 01:30:27 10° NW 01:34:34 72° SW 01:38:41 10° SE
STARLINK-75 4.2 01:33:28 24° W 01:34:34 30° NW 01:37:29 10° NNE
NOSS 2-1 (D) 3.0 01:34:04 29° SW 01:35:40 66° WNW 01:39:02 10° NNE
ERS-2 2.9 01:36:54 26° SW 01:37:53 31° W 01:41:11 10° NW
Cosmos 2360 Rocket 3.5 01:33:24 10° S 01:38:29 37° ESE 01:43:35 10° NE
STARLINK-1208 3.5 01:35:27 10° NW 01:39:32 64° SW 01:43:37 10° SSE
Cosmos 2341 Rocket 4.0 01:33:13 10° S 01:39:35 77° W 01:45:59 10° N
STARLINK-58 3.1 01:41:38 27° WSW 01:43:06 58° NW 01:46:14 10° NE
MSX 3.8 01:38:29 10° N 01:44:13 70° WNW 01:49:50 10° SSW
STARLINK-22 4.1 01:42:53 21° W 01:44:22 31° NW 01:47:17 10° NNE
STARLINK-1271 3.6 01:40:26 10° NW 01:44:29 56° SW 01:48:32 10° SSE
CZ-4C R/B 3.4 01:43:22 15° SSW 01:46:00 42° W 01:49:26 10° NNW
Cosmos 1825 2.6 01:42:32 10° S 01:46:15 62° E 01:49:57 10° NNE
Cosmos 1980 Rocket 3.8 01:43:28 13° W 01:46:15 18° WNW 01:50:02 10° NNW
Cosmos 2221 3.0 01:44:25 10° NNW 01:48:30 41° W 01:52:35 10° SSW
STARLINK-1154 3.7 01:45:27 10° NW 01:49:27 49° SW 01:53:26 10° SSE
PAYLOAD A 3.9 01:44:57 10° NNE 01:49:40 79° ESE 01:54:25 10° S
STARLINK-1278 4.2 01:46:43 15° SSW 01:50:03 54° SE 01:54:12 10° NE
BREEZE M DEB (TANK) 4.2 01:47:36 10° NW 01:51:35 85° SW 02:06:59 10° SE
STARLINK-1280 4.1 01:48:30 15° SSW 01:51:54 56° SE 01:56:04 10° NE
Cosmos 2151 3.1 01:48:13 10° S 01:52:25 79° E 01:56:42 10° N
PSLV R/B 3.4 01:48:41 10° N 01:52:53 76° WNW 01:57:02 10° SSW
STARLINK-1305 4.4 01:50:21 12° SSW 01:53:52 45° SE 01:57:50 10° NE
STARLINK-1197 3.9 01:50:28 10° WNW 01:54:24 43° SW 01:58:19 10° SSE
STARLINK-48 3.5 01:53:57 17° SW 01:56:49 68° NW 02:00:41 10° NE
ATLAS CENTAUR R/B 4.0 01:52:27 10° WNW 01:57:31 40° SW 02:09:50 10° SSE
Cosmos 2058 4.0 01:55:21 16° SW 01:57:53 28° W 02:01:30 10° NNW
STARLINK-1262 4.2 01:55:08 12° SSW 01:58:50 51° SE 02:02:51 10° NE
STARLINK-1198 4.0 01:55:32 10° WNW 01:59:23 38° SW 02:03:14 10° SSE
STARLINK-1300 4.0 01:59:54 11° SSW 02:03:47 58° SE 02:07:51 10° NE
STARLINK-1199 4.2 02:00:33 10° WNW 02:04:19 34° SW 02:08:03 10° SSE
Cosmos 1766 Rocket 3.8 02:01:09 10° S 02:05:30 74° E 02:09:51 10° N
Lacrosse 4 Rocket 2.5 02:03:01 10° NW 02:06:23 23° WSW 02:09:42 10° SSW
Shenzhou-11 Module 1.4 02:04:36 16° WSW 02:06:24 72° NNW 02:08:52 10° NE
STARLINK-1295 3.9 02:04:42 10° SSW 02:08:45 66° SE 02:12:52 10° NE
STARLINK-1210 4.4 02:05:38 10° WNW 02:09:16 30° SW 02:12:54 10° S
Cosmos 2150 Rocket 4.4 02:05:05 10° NNW 02:09:50 39° W 02:14:34 10° SSW
H-2A R/B 3.4 02:08:53 10° SW 02:12:02 20° W 02:15:14 10° NW
STARLINK-1287 3.7 02:09:36 10° SW 02:13:42 75° SE 02:17:51 10° NE
Cosmos 864 Rocket 4.5 02:08:56 10° SSW 02:15:03 71° W 02:21:10 10° N
Cosmos 2237 4.3 02:09:44 10° SSW 02:15:25 87° ESE 02:21:10 10° NNE
Cosmos 2084 Rocket 3.9 02:12:55 10° NNW 02:17:24 71° ENE 02:21:53 10° SE
Cosmos 2322 Rocket 2.7 02:12:26 10° SW 02:17:46 44° WNW 02:23:08 10° N
Cosmos 1606 4.4 02:14:29 10° NNE 02:17:58 36° E 02:21:27 10° SSE
Cosmos 2218 Rocket 4.2 02:13:28 10° SSW 02:19:38 59° W 02:25:55 10° N
Cosmos 2263 Rocket 2.1 02:15:27 10° NNW 02:21:01 71° WSW 02:26:32 10° S
STARLINK-1302 3.6 02:19:31 10° SW 02:23:38 86° NW 02:27:47 10° NE
STARLINK-1029 4.3 02:21:15 10° WSW 02:24:00 27° NW 02:26:45 10° NNE
CZ-2C R/B 2.8 02:21:14 10° N 02:26:14 51° WNW 02:31:13 10° SSW
